Regional Weather Roundup
Issued by NWS Charleston, WV

Home | Current Version | Previous Version | Text Only | Print | Product List | Glossary Off
Versions: 1 2 3 4 5 6 7 8 9 10 11 12 13 14 15 16 17 18 19 20 21 22 23 24 25 26 27 28 29 30 31 32 33 34 35 36 37 38 39 40 41 42 43 44 45 46 47 48 49 50

849
ASUS41 KRLX 271510
RWRRLX
West Virginia Regional Weather Roundup
National Weather Service Charleston WV
1100 AM EDT TUE JUN 27 2017

Note: "fair" indicates few or no clouds below 12,000 feet with no
significant weather and/or obstructions to visibility.

WVZ003-271600-
Northern Panhandle of West Virginia

CITY           SKY/WX    TMP DP  RH WIND       PRES   REMARKS
WHEELING       MOSUNNY   62  47  57 W9G16     30.09S
$$

WVZ009-271600-
Northwest West Virginia

CITY           SKY/WX    TMP DP  RH WIND       PRES   REMARKS
PARKERSBURG      N/A     65  51  60 VRB7      30.15S
$$

WVZ006-271600-
Western West Virginia

CITY           SKY/WX    TMP DP  RH WIND       PRES   REMARKS
HUNTINGTON     SUNNY     69  53  56 NW6       30.14S
$$

WVZ015-271600-
West Central West Virginia

CITY           SKY/WX    TMP DP  RH WIND       PRES   REMARKS
CHARLESTON     MOSUNNY   68  51  54 W12       30.13S
$$

WVZ022-031-271600-
North Central West Virginia

CITY           SKY/WX    TMP DP  RH WIND       PRES   REMARKS
CLARKSBURG     MOSUNNY   66  51  58 W9        30.10S
MORGANTOWN     MOSUNNY   65  50  58 SW8       30.10S
$$

WVZ025-035-042-045-271600-
Southern West Virginia

CITY           SKY/WX    TMP DP  RH WIND       PRES   REMARKS
BECKLEY        MOSUNNY   65  47  52 NW15      30.16S
LOGAN            N/A     64  52  63 CALM      30.15S
BLUEFIELD      SUNNY     61  44  53 NW10G21   30.18S
LEWISBURG      SUNNY     65  45  49 W9G20     30.13S
$$

WVZ047-271600-
Northern Mountains of West Virginia

CITY           SKY/WX    TMP DP  RH WIND       PRES   REMARKS
ELKINS         MOSUNNY   66  48  52 W12       30.12R
$$

WVZ052-271600-
Eastern Panhandle of West Virginia

CITY           SKY/WX    TMP DP  RH WIND       PRES   REMARKS
MARTINSBURG    MOSUNNY   73  52  47 NW10G20   30.03F
PETERSBURG     PTSUNNY   73  48  41 W10G30    30.07R
$$




USA.gov is the U.S. government's official web portal to all federal, state and local government web resources and services.